KQA671 HKJK-HKMO

Flight info

Callsign KQA671
Flight time 0h 48m
Altitude 31000
Route ATUDU1D UVOVA UQ135 NEREV NEREV3A
Aircraft B738/M-SDE2E3FGHIRWXY/LB1

Departure

Time 2026-04-21 16:55
Airport Jomo Kenyatta International Airport (HKJK)

Arrival

Time 2026-04-21 17:43
Airport Moi International Airport (HKMO)
Time Latitude Longitude Altitude Speed Heading
2026-04-21 16:32 -1.32897 36.92431 5339 ft 0 kts 162°
2026-04-21 16:44 -1.32885 36.92426 5339 ft 2 kts 158°
2026-04-21 16:44 -1.32870 36.92420 5339 ft 2 kts 157°
2026-04-21 16:45 -1.32861 36.92416 5339 ft 2 kts 157°
2026-04-21 16:45 -1.32853 36.92412 5339 ft 2 kts 156°
2026-04-21 16:45 -1.32838 36.92406 5339 ft 2 kts 156°
2026-04-21 16:45 -1.32824 36.92400 5339 ft 2 kts 158°
2026-04-21 16:46 -1.32810 36.92394 5339 ft 2 kts 158°
2026-04-21 16:46 -1.32795 36.92392 5339 ft 2 kts 192°
2026-04-21 16:46 -1.32782 36.92399 5339 ft 2 kts 227°
2026-04-21 16:46 -1.32774 36.92412 5339 ft 2 kts 236°
2026-04-21 16:47 -1.32769 36.92419 5339 ft 0 kts 236°
2026-04-21 16:49 -1.32771 36.92416 5339 ft 2 kts 237°
2026-04-21 16:49 -1.32790 36.92387 5339 ft 8 kts 237°
2026-04-21 16:49 -1.32817 36.92347 5339 ft 4 kts 236°
2026-04-21 16:49 -1.32841 36.92313 5339 ft 5 kts 231°
2026-04-21 16:50 -1.32849 36.92304 5339 ft 3 kts 228°
2026-04-21 16:50 -1.32860 36.92283 5339 ft 4 kts 262°
2026-04-21 16:50 -1.32845 36.92251 5339 ft 7 kts 311°
2026-04-21 16:50 -1.32800 36.92211 5339 ft 7 kts 321°
2026-04-21 16:51 -1.32784 36.92174 5339 ft 6 kts 252°
2026-04-21 16:51 -1.32810 36.92131 5339 ft 9 kts 233°
2026-04-21 16:51 -1.32841 36.92080 5339 ft 8 kts 260°
2026-04-21 16:51 -1.32833 36.92007 5339 ft 13 kts 279°
2026-04-21 16:52 -1.32817 36.91907 5339 ft 10 kts 279°
2026-04-21 16:52 -1.32836 36.91834 5339 ft 13 kts 238°
2026-04-21 16:52 -1.32861 36.91794 5339 ft 9 kts 241°
2026-04-21 16:52 -1.32848 36.91719 5339 ft 10 kts 319°
2026-04-21 16:53 -1.32812 36.91692 5339 ft 0 kts 323°
2026-04-21 16:53 -1.32800 36.91684 5339 ft 4 kts 324°
2026-04-21 16:53 -1.32799 36.91683 5339 ft 0 kts 324°
2026-04-21 16:53 -1.32788 36.91675 5339 ft 4 kts 324°
2026-04-21 16:54 -1.32753 36.91665 5339 ft 6 kts 15°
2026-04-21 16:54 -1.32707 36.91709 5339 ft 15 kts 53°
2026-04-21 16:54 -1.32473 36.92029 5339 ft 115 kts 53°
2026-04-21 16:54 -1.31779 36.92979 5339 ft 220 kts 52°
2026-04-21 16:55 -1.30743 36.94469 5548 ft 300 kts 58°
2026-04-21 16:55 -1.29802 36.96467 6556 ft 313 kts 67°
2026-04-21 16:55 -1.29244 36.98427 7169 ft 281 kts 79°
2026-04-21 16:55 -1.29095 37.00288 7952 ft 267 kts 88°
2026-04-21 16:56 -1.29231 37.02002 9097 ft 230 kts 95°
2026-04-21 16:56 -1.29319 37.03472 9747 ft 205 kts 85°
2026-04-21 16:56 -1.29073 37.04816 10132 ft 192 kts 68°
2026-04-21 16:56 -1.28451 37.05941 10135 ft 177 kts 47°
2026-04-21 16:57 -1.27745 37.06926 10193 ft 179 kts 57°
2026-04-21 16:57 -1.27170 37.08104 11041 ft 199 kts 65°
2026-04-21 16:57 -1.26748 37.09451 12266 ft 205 kts 75°
2026-04-21 16:57 -1.26602 37.10860 13606 ft 204 kts 89°
2026-04-21 16:58 -1.26843 37.12270 14731 ft 212 kts 108°
2026-04-21 16:58 -1.27589 37.13591 15526 ft 235 kts 131°
2026-04-21 16:58 -1.28945 37.14619 16204 ft 258 kts 157°
2026-04-21 16:58 -1.30643 37.15209 17406 ft 253 kts 161°
2026-04-21 16:59 -1.32068 37.16211 18777 ft 254 kts 136°
2026-04-21 16:59 -1.33097 37.17624 20032 ft 248 kts 124°
2026-04-21 16:59 -1.33940 37.19071 21381 ft 234 kts 122°
2026-04-21 16:59 -1.34743 37.20455 22440 ft 231 kts 124°
2026-04-21 17:00 -1.35632 37.21836 23103 ft 245 kts 127°
2026-04-21 17:00 -1.36687 37.23258 23621 ft 263 kts 131°
2026-04-21 17:00 -1.37468 37.24212 24062 ft 270 kts 133°
2026-04-21 17:00 -1.39123 37.26088 25346 ft 264 kts 136°
2026-04-21 17:01 -1.40334 37.27394 26361 ft 256 kts 137°
2026-04-21 17:01 -1.41571 37.28692 27141 ft 257 kts 137°
2026-04-21 17:01 -1.42831 37.29983 27627 ft 269 kts 138°
2026-04-21 17:01 -1.44183 37.31346 28054 ft 282 kts 138°
2026-04-21 17:02 -1.45588 37.32750 28656 ft 287 kts 138°
2026-04-21 17:02 -1.46522 37.33682 29170 ft 285 kts 139°
2026-04-21 17:02 -1.48371 37.35526 30228 ft 278 kts 139°
2026-04-21 17:02 -1.49742 37.36888 30804 ft 281 kts 139°
2026-04-21 17:03 -1.51145 37.38278 31153 ft 287 kts 139°
2026-04-21 17:03 -1.52569 37.39696 31396 ft 301 kts 138°
2026-04-21 17:03 -1.54093 37.41215 31812 ft 308 kts 138°
2026-04-21 17:03 -1.55599 37.42706 32405 ft 303 kts 139°
2026-04-21 17:04 -1.56532 37.43636 33035 ft 291 kts 139°
2026-04-21 17:04 -1.58373 37.45486 33990 ft 280 kts 138°
2026-04-21 17:04 -1.59305 37.46424 34144 ft 287 kts 137°
2026-04-21 17:04 -1.60761 37.47880 34128 ft 306 kts 138°
2026-04-21 17:05 -1.62261 37.49378 34490 ft 305 kts 139°
2026-04-21 17:05 -1.64267 37.51385 34776 ft 320 kts 139°
2026-04-21 17:05 -1.65353 37.52436 34686 ft 332 kts 139°
2026-04-21 17:05 -1.67570 37.54561 35068 ft 341 kts 140°
2026-04-21 17:06 -1.68725 37.55673 34906 ft 357 kts 139°
2026-04-21 17:06 -1.70565 37.57454 34673 ft 380 kts 138°
2026-04-21 17:06 -1.72509 37.59351 34439 ft 401 kts 138°
2026-04-21 17:06 -1.74552 37.61362 34202 ft 421 kts 138°
2026-04-21 17:07 -1.76673 37.63458 33962 ft 439 kts 137°
2026-04-21 17:07 -1.78882 37.65647 33718 ft 455 kts 137°
2026-04-21 17:07 -1.81162 37.67911 33473 ft 468 kts 137°
2026-04-21 17:07 -1.83498 37.70233 33229 ft 480 kts 137°
2026-04-21 17:08 -1.85886 37.72610 32984 ft 489 kts 137°
2026-04-21 17:08 -1.88280 37.74996 32741 ft 496 kts 137°
2026-04-21 17:08 -1.90738 37.77447 32494 ft 501 kts 137°
2026-04-21 17:08 -1.93214 37.79919 32246 ft 505 kts 137°
2026-04-21 17:09 -1.98209 37.84906 31749 ft 510 kts 137°
2026-04-21 17:09 -2.00716 37.87411 31500 ft 511 kts 137°
2026-04-21 17:09 -2.03208 37.89902 31257 ft 497 kts 137°
2026-04-21 17:10 -2.05625 37.92322 31109 ft 487 kts 137°
2026-04-21 17:10 -2.07987 37.94686 31016 ft 488 kts 137°
2026-04-21 17:10 -2.12796 37.99492 30993 ft 490 kts 137°
2026-04-21 17:11 -2.17634 38.04323 30996 ft 492 kts 137°
2026-04-21 17:11 -2.22480 38.09160 30996 ft 493 kts 137°
2026-04-21 17:12 -2.27333 38.14004 30996 ft 493 kts 137°
2026-04-21 17:12 -2.32182 38.18844 30996 ft 493 kts 137°
2026-04-21 17:13 -2.37010 38.23664 30996 ft 493 kts 137°
2026-04-21 17:13 -2.41867 38.28513 30996 ft 493 kts 137°
2026-04-21 17:14 -2.46723 38.33361 30996 ft 493 kts 137°
2026-04-21 17:14 -2.51580 38.38211 30996 ft 493 kts 137°
2026-04-21 17:15 -2.56435 38.43060 30996 ft 493 kts 137°
2026-04-21 17:15 -2.61251 38.47870 30996 ft 493 kts 137°
2026-04-21 17:16 -2.66154 38.52765 30963 ft 508 kts 137°
2026-04-21 17:16 -2.71241 38.57837 30991 ft 520 kts 137°
2026-04-21 17:17 -2.76355 38.62945 30996 ft 519 kts 137°
2026-04-21 17:17 -2.81460 38.68049 30996 ft 519 kts 137°
2026-04-21 17:18 -2.86532 38.73121 30996 ft 519 kts 137°
2026-04-21 17:18 -2.91633 38.78222 30996 ft 519 kts 137°
2026-04-21 17:19 -2.96735 38.83325 30996 ft 518 kts 137°
2026-04-21 17:19 -3.01833 38.88423 30996 ft 518 kts 137°
2026-04-21 17:20 -3.06932 38.93524 30996 ft 518 kts 137°
2026-04-21 17:20 -3.12028 38.98623 30996 ft 518 kts 137°
2026-04-21 17:21 -3.17101 39.03700 30819 ft 520 kts 137°
2026-04-21 17:21 -3.19660 39.06261 30601 ft 520 kts 137°
2026-04-21 17:21 -3.22215 39.08818 30374 ft 518 kts 137°
2026-04-21 17:22 -3.24771 39.11342 30072 ft 518 kts 137°
2026-04-21 17:22 -3.27324 39.13834 29540 ft 500 kts 137°
2026-04-21 17:22 -3.29742 39.16180 28967 ft 468 kts 138°
2026-04-21 17:22 -3.31901 39.18438 28394 ft 445 kts 130°
2026-04-21 17:23 -3.33523 39.20997 27819 ft 427 kts 119°
2026-04-21 17:23 -3.34755 39.23645 27242 ft 412 kts 114°
2026-04-21 17:23 -3.35777 39.26280 26667 ft 402 kts 111°
2026-04-21 17:23 -3.36697 39.28895 26089 ft 394 kts 110°
2026-04-21 17:24 -3.37558 39.31474 25514 ft 389 kts 109°
2026-04-21 17:24 -3.38387 39.34035 24937 ft 384 kts 109°
2026-04-21 17:24 -3.39199 39.36566 24336 ft 380 kts 109°
2026-04-21 17:24 -3.39998 39.39064 23774 ft 375 kts 109°
2026-04-21 17:25 -3.40784 39.41529 23262 ft 370 kts 109°
2026-04-21 17:25 -3.41551 39.43937 22766 ft 366 kts 109°
2026-04-21 17:25 -3.42320 39.46352 22265 ft 363 kts 109°
2026-04-21 17:25 -3.43083 39.48748 21764 ft 360 kts 109°
2026-04-21 17:26 -3.43839 39.51126 21264 ft 357 kts 109°
2026-04-21 17:26 -3.44588 39.53483 20763 ft 354 kts 109°
2026-04-21 17:26 -3.45332 39.55826 20156 ft 354 kts 109°
2026-04-21 17:26 -3.46081 39.58182 19409 ft 353 kts 108°
2026-04-21 17:27 -3.46826 39.60512 18660 ft 350 kts 108°
2026-04-21 17:27 -3.47568 39.62816 17910 ft 346 kts 108°
2026-04-21 17:27 -3.48308 39.65089 17160 ft 342 kts 108°
2026-04-21 17:27 -3.49036 39.67303 16418 ft 338 kts 108°
2026-04-21 17:28 -3.49776 39.69529 15625 ft 336 kts 108°
2026-04-21 17:28 -3.50575 39.71709 14822 ft 333 kts 116°
2026-04-21 17:28 -3.51946 39.73557 14016 ft 329 kts 138°
2026-04-21 17:28 -3.53859 39.74759 13217 ft 324 kts 160°
2026-04-21 17:29 -3.56039 39.75167 12418 ft 318 kts 182°
2026-04-21 17:29 -3.58207 39.74882 11634 ft 313 kts 191°
2026-04-21 17:29 -3.60344 39.74677 10846 ft 311 kts 186°
2026-04-21 17:29 -3.62472 39.74231 10038 ft 308 kts 199°
2026-04-21 17:30 -3.64428 39.73484 9255 ft 305 kts 205°
2026-04-21 17:30 -3.66228 39.72388 8440 ft 300 kts 224°
2026-04-21 17:30 -3.67445 39.70732 7642 ft 295 kts 246°
2026-04-21 17:30 -3.67905 39.68760 6843 ft 291 kts 269°
2026-04-21 17:31 -3.67545 39.66791 6041 ft 287 kts 292°
2026-04-21 17:31 -3.66507 39.65102 5262 ft 284 kts 306°
2026-04-21 17:31 -3.65228 39.63622 4479 ft 279 kts 320°
2026-04-21 17:31 -3.63543 39.62774 3713 ft 268 kts 344°
2026-04-21 17:32 -3.61769 39.62789 3470 ft 241 kts 13°
2026-04-21 17:32 -3.60411 39.63569 3478 ft 216 kts 43°
2026-04-21 17:32 -3.59728 39.64814 3487 ft 209 kts 75°
2026-04-21 17:32 -3.59810 39.66255 3508 ft 209 kts 105°
2026-04-21 17:33 -3.60383 39.67596 3514 ft 210 kts 115°
2026-04-21 17:33 -3.61061 39.68876 3499 ft 206 kts 118°
2026-04-21 17:33 -3.61749 39.70117 3497 ft 203 kts 118°
2026-04-21 17:33 -3.62428 39.71332 3518 ft 197 kts 118°
2026-04-21 17:34 -3.63099 39.72530 3503 ft 198 kts 118°
2026-04-21 17:34 -3.63774 39.73735 3501 ft 198 kts 118°
2026-04-21 17:34 -3.64475 39.74901 3485 ft 199 kts 125°
2026-04-21 17:34 -3.65611 39.75671 3494 ft 202 kts 160°
2026-04-21 17:35 -3.67018 39.75780 3531 ft 206 kts 182°
2026-04-21 17:35 -3.68457 39.75637 3381 ft 210 kts 187°
2026-04-21 17:35 -3.69889 39.75445 3162 ft 206 kts 188°
2026-04-21 17:35 -3.71306 39.75260 2939 ft 203 kts 187°
2026-04-21 17:36 -3.72701 39.75098 2719 ft 201 kts 187°
2026-04-21 17:36 -3.74073 39.74856 2499 ft 200 kts 192°
2026-04-21 17:36 -3.75404 39.74493 2327 ft 197 kts 198°
2026-04-21 17:36 -3.76681 39.74030 2226 ft 194 kts 202°
2026-04-21 17:37 -3.77901 39.73506 2202 ft 193 kts 205°
2026-04-21 17:37 -3.79112 39.72928 2201 ft 193 kts 206°
2026-04-21 17:37 -3.80309 39.72317 2201 ft 194 kts 208°
2026-04-21 17:37 -3.81500 39.71685 2200 ft 193 kts 208°
2026-04-21 17:38 -3.82647 39.71062 2188 ft 182 kts 209°
2026-04-21 17:38 -3.83722 39.70470 2185 ft 173 kts 209°
2026-04-21 17:38 -3.84765 39.69893 2192 ft 169 kts 209°
2026-04-21 17:38 -3.85789 39.69323 2195 ft 167 kts 210°
2026-04-21 17:39 -3.86797 39.68761 2197 ft 166 kts 210°
2026-04-21 17:39 -3.87795 39.68203 2211 ft 162 kts 210°
2026-04-21 17:39 -3.88765 39.67662 2226 ft 158 kts 210°
2026-04-21 17:39 -3.89708 39.67135 2251 ft 158 kts 210°
2026-04-21 17:40 -3.90680 39.66591 2282 ft 160 kts 210°
2026-04-21 17:40 -3.91655 39.66046 2286 ft 161 kts 210°
2026-04-21 17:40 -3.92634 39.65498 2329 ft 161 kts 210°
2026-04-21 17:40 -3.93626 39.64944 2318 ft 164 kts 210°
2026-04-21 17:41 -3.94620 39.64387 2205 ft 165 kts 210°
2026-04-21 17:41 -3.95615 39.63831 2092 ft 164 kts 210°
2026-04-21 17:41 -3.96605 39.63277 1870 ft 166 kts 210°
2026-04-21 17:41 -3.97620 39.62710 1521 ft 166 kts 209°
2026-04-21 17:42 -3.98641 39.62138 1099 ft 166 kts 209°
2026-04-21 17:42 -3.99615 39.61594 758 ft 162 kts 209°
2026-04-21 17:42 -4.00597 39.61044 443 ft 157 kts 209°
2026-04-21 17:42 -4.01542 39.60517 217 ft 152 kts 209°
2026-04-21 17:43 -4.02312 39.60089 209 ft 94 kts 209°
2026-04-21 17:43 -4.02663 39.59892 209 ft 23 kts 212°
2026-04-21 17:43 -4.02743 39.59842 209 ft 9 kts 211°
2026-04-21 17:43 -4.02788 39.59816 209 ft 7 kts 210°
2026-04-21 17:44 -4.02832 39.59790 209 ft 9 kts 210°
2026-04-21 17:44 -4.02921 39.59742 209 ft 22 kts 210°
2026-04-21 17:44 -4.03101 39.59640 209 ft 34 kts 209°
2026-04-21 17:44 -4.03295 39.59533 209 ft 36 kts 209°
2026-04-21 17:45 -4.03543 39.59395 209 ft 45 kts 209°
2026-04-21 17:45 -4.03854 39.59222 209 ft 49 kts 203°
2026-04-21 17:45 -4.04014 39.59243 209 ft 7 kts 58°
2026-04-21 17:45 -4.03980 39.59279 209 ft 3 kts 47°
2026-04-21 17:46 -4.03978 39.59282 209 ft 0 kts 49°
2026-04-21 17:46 -4.03972 39.59289 209 ft 4 kts 52°
2026-04-21 17:47 -4.03948 39.59333 209 ft 11 kts 66°
2026-04-21 17:47 -4.03903 39.59394 209 ft 12 kts 35°
2026-04-21 17:47 -4.03820 39.59441 209 ft 15 kts 28°
2026-04-21 17:47 -4.03735 39.59486 209 ft 9 kts 28°
2026-04-21 17:48 -4.03721 39.59494 209 ft 0 kts 28°
2026-04-21 17:48 -4.03714 39.59497 209 ft 0 kts 28°
2026-04-21 17:48 -4.03708 39.59501 209 ft 2 kts 28°
2026-04-21 17:48 -4.03685 39.59514 209 ft 5 kts 29°
2026-04-21 17:49 -4.03645 39.59536 209 ft 8 kts 29°
2026-04-21 17:49 -4.03590 39.59566 209 ft 10 kts 28°
2026-04-21 17:49 -4.03523 39.59602 209 ft 11 kts 28°
2026-04-21 17:49 -4.03475 39.59628 209 ft 8 kts 28°
2026-04-21 17:50 -4.03419 39.59658 209 ft 10 kts 28°
2026-04-21 17:50 -4.03350 39.59696 209 ft 11 kts 33°
2026-04-21 17:50 -4.03325 39.59753 209 ft 10 kts 84°
2026-04-21 17:50 -4.03323 39.59809 209 ft 6 kts 89°
2026-04-21 17:51 -4.03322 39.59862 209 ft 9 kts 89°
2026-04-21 17:51 -4.03320 39.59930 209 ft 8 kts 89°
2026-04-21 17:51 -4.03320 39.59964 209 ft 5 kts 89°
2026-04-21 17:51 -4.03318 39.60009 209 ft 7 kts 88°
2026-04-21 17:52 -4.03295 39.60053 209 ft 6 kts 37°
2026-04-21 17:52 -4.03261 39.60072 209 ft 5 kts 28°
2026-04-21 17:52 -4.03247 39.60084 209 ft 1 kts 56°
2026-04-21 17:52 -4.03240 39.60098 209 ft 3 kts 72°
2026-04-21 17:53 -4.03242 39.60127 209 ft 5 kts 103°
2026-04-21 17:53 -4.03254 39.60158 209 ft 2 kts 115°
2026-04-21 17:53 -4.03257 39.60165 209 ft 1 kts 117°